Location: Winthrop
(48.4780°N, 120.1850°W)
Time: 17:42:51
(UTC-07:00)

Explorer 7 - Pass Details

Date: 31 January 2023
Orbit: 478 x 657 km, 50.3° (Epoch: 30 March)

Event Time Altitude Azimuth Distance (km) Brightness Sun altitude
Rises 19:31:54 0° 285° (WNW) 2,931 11.8 -25.6°
Reaches altitude 10° 19:34:47 10° 267° (W) 2,043 10.7 -26.1°
Maximum altitude 19:38:01 18° 224° (SW) 1,572 9.5 -26.6°
Enters shadow 19:40:29 13° 188° (S) 1,874 9.5 -27.0°
Drops below altitude 10° 19:41:17 10° 181° (S) 2,068 - -27.1°
Sets 19:44:14 0° 163° (SSE) 2,980 - -27.6°
